DW7831 Weather Reports


time (UTC)temp
F
wind
direction
speed
knots
gust
knots
rain 1hr
in
rain 24hr
in
rain mn
in
humidity
%
barometer
mb
20260510013005 51 214 0.0 0.0 0.00 0.00 0.37 20 1010.0
20260510011505 51 214 0.9 0.0 0.00 0.00 0.37 17 1010.1
20260510010100 51 215 1.7 0.0 0.00 0.00 0.37 17 1010.3
20260510004603 51 236 0.9 0.0 0.00 0.00 0.37 19 1010.0
20260510003051 51 238 0.9 0.0 0.00 0.00 0.37 22 1009.9
20260510001548 51 238 0.9 0.0 0.00 0.00 0.37 26 1009.7
20260510000042 52 238 2.6 0.0 0.00 0.00 0.37 28 1009.8
20260509234538 52 207 3.5 0.0 0.00 0.00 0.37 32 1009.4
20260509233035 52 198 3.5 0.0 0.00 0.00 0.37 35 1009.4
20260509231530 52 221 3.5 0.0 0.00 0.00 0.37 37 1009.2
20260509230027 52 193 3.5 0.0 0.00 0.00 0.37 38 1009.0
20260509224522 53 204 4.3 0.0 0.00 0.00 0.37 37 1008.9
20260509223020 52 211 5.2 0.0 0.00 0.00 0.37 36 1009.1
20260509221516 52 192 4.3 0.0 0.00 0.00 0.37 35 1009.2
20260509220011 52 208 6.1 0.0 0.00 0.00 0.37 32 1009.2
20260509214506 52 215 6.1 0.0 0.00 0.00 0.37 28 1009.3
20260509213002 52 203 7.8 0.0 0.00 0.00 0.37 32 1009.6
20260509211602 53 224 3.5 0.0 0.00 0.00 0.37 32 1009.6
20260509210106 52 202 6.1 0.0 0.00 0.00 0.37 28 1009.7
20260509204551 51 224 7.0 0.0 0.00 0.00 0.37 21 1009.6
20260509203046 51 229 4.3 0.0 0.00 0.00 0.37 10 1009.9
20260509201546 51 188 4.3 0.0 0.00 0.00 0.37 6 1010.0
20260509200048 50 198 6.1 0.0 0.00 0.00 0.37 4 1010.1
20260509194537 50 223 5.2 0.0 0.00 0.00 0.37 100 1010.3
20260509193032 50 182 4.3 0.0 0.00 0.00 0.36 100 1010.3
20260509191528 50 206 3.5 0.0 0.00 0.00 0.36 100 1010.4
20260509190023 49 184 5.2 0.0 0.00 0.00 0.36 100 1010.6
20260509184532 49 188 1.7 0.0 0.00 0.00 0.36 100 1010.7
20260509183015 49 196 1.7 0.0 0.00 0.00 0.35 100 1010.7
20260509181514 49 192 2.6 0.0 0.00 0.00 0.35 100 1010.6
20260509180008 49 189 3.5 0.0 0.00 0.00 0.35 100 1010.6
20260509174508 49 153 2.6 0.0 0.00 0.00 0.35 100 1010.6
20260509173119 49 200 1.7 0.0 0.00 0.00 0.34 100 1010.5
20260509171602 49 206 2.6 0.0 0.00 0.00 0.34 100 1010.6
20260509164557 48 207 1.7 0.0 0.00 0.00 0.34 100 1011.2
20260509163048 49 198 0.9 0.0 0.00 0.00 0.33 100 1011.3
20260509161542 48 192 0.0 0.0 0.00 0.00 0.32 100 1011.4
20260509160036 48 192 0.9 0.0 0.00 0.00 0.31 100 1011.6
20260509154532 48 193 0.0 0.0 0.00 0.00 0.30 100 1011.9
20260509153032 47 193 0.0 0.0 0.00 0.00 0.28 100 1012.2
20260509151524 47 193 0.9 0.0 0.00 0.00 0.28 100 1012.4
20260509150020 46 192 1.7 0.0 0.00 0.00 0.27 100 1012.4
20260509144516 46 246 0.0 0.0 0.00 0.00 0.26 100 1012.3
20260509143013 46 247 0.0 0.0 0.00 0.00 0.24 100 1012.4
20260509141508 46 247 0.0 0.0 0.00 0.00 0.23 100 1012.4
20260509140005 46 247 0.0 0.0 0.00 0.00 0.22 100 1012.4
20260509134559 46 247 0.0 0.0 0.00 0.00 0.20 100 1012.4
20260509133058 45 247 0.0 0.0 0.00 0.00 0.18 100 1012.5
20260509131602 44 247 0.0 0.0 0.00 0.00 0.16 100 1012.7
20260509130122 44 247 0.0 0.0 0.00 0.00 0.15 100 1012.6
20260509124545 43 247 0.0 0.0 0.00 0.00 0.14 100 1012.6
20260509123113 42 247 0.0 0.0 0.00 0.00 0.13 100 1012.5
20260509121540 42 247 0.0 0.0 0.00 0.00 0.13 100 1012.6
20260509120040 41 247 0.0 0.0 0.00 0.00 0.13 100 1012.6
20260509114530 40 247 0.0 0.0 0.00 0.00 0.12 100 1012.7
20260509113025 40 247 0.0 0.0 0.00 0.00 0.11 100 1012.7
20260509111522 40 247 0.0 0.0 0.00 0.00 0.10 100 1012.5
20260509110019 39 247 0.0 0.0 0.00 0.00 0.10 100 1012.7
20260509104514 39 247 0.0 0.0 0.00 0.00 0.10 100 1012.6
20260509103009 39 247 0.0 0.0 0.00 0.00 0.10 100 1012.5
20260509101511 38 247 0.0 0.0 0.00 0.00 0.09 100 1012.6
20260509100005 38 247 0.0 0.0 0.00 0.00 0.08 100 1012.6
20260509094603 38 247 0.0 0.0 0.00 0.00 0.08 100 1012.7
20260509093058 38 246 0.0 0.0 0.00 0.00 0.08 100 1012.8
20260509091553 38 246 0.0 0.0 0.00 0.00 0.08 100 1012.9
20260509090046 38 246 0.0 0.0 0.00 0.00 0.08 100 1013.0
20260509084541 38 246 0.0 0.0 0.00 0.00 0.07 100 1012.9
20260509083036 38 246 0.0 0.0 0.00 0.00 0.07 100 1013.1
20260509081534 38 246 0.0 0.0 0.00 0.00 0.05 100 1013.3
20260509080030 37 246 0.0 0.0 0.00 0.00 0.03 2 1013.4
20260509074526 37 246 0.0 0.0 0.00 0.00 0.01 2 1013.2
20260509073022 36 246 0.0 0.0 0.00 0.00 0.00 100 1013.2
20260509071518 35 246 0.0 0.0 0.00 0.00 0.00 2 1013.1
20260509070014 35 246 0.0 0.0 0.00 0.00 0.00 5 1013.1
20260509064509 34 246 0.0 0.0 0.00 0.00 0.00 6 1013.2
20260509063007 34 246 0.0 0.0 0.00 0.00 0.00 10 1013.4
20260509061512 33 246 0.0 0.0 0.00 0.00 0.00 14 1013.4
20260509060001 33 246 0.0 0.0 0.00 0.00 0.00 17 1013.5
20260509054611 33 246 0.0 0.0 0.00 0.00 0.00 21 1013.7
20260509053104 34 246 0.0 0.0 0.00 0.00 0.00 26 1013.9
20260509051603 34 246 0.0 0.0 0.00 0.00 0.00 32 1014.1
20260509050052 35 246 0.0 0.0 0.00 0.00 0.00 38 1014.2
20260509044548 35 246 0.0 0.0 0.00 0.00 0.00 43 1014.2
20260509043044 36 246 0.0 0.0 0.00 0.00 0.00 46 1014.1
20260509041540 37 246 0.0 0.0 0.00 0.00 0.00 47 1014.2
20260509040042 37 246 0.0 0.0 0.00 0.00 0.00 47 1014.1
20260509034535 38 246 0.0 0.0 0.00 0.00 0.04 48 1014.1
20260509033028 38 246 0.0 0.0 0.00 0.00 0.04 49 1014.2
20260509031529 38 246 0.0 0.0 0.00 0.00 0.04 51 1014.3
20260509030023 38 246 0.0 0.0 0.00 0.00 0.04 53 1014.2
20260509024517 38 246 0.0 0.0 0.00 0.00 0.04 56 1014.4
20260509023015 38 246 0.0 0.0 0.00 0.00 0.04 59 1014.2
20260509021513 39 246 0.0 0.0 0.00 0.00 0.04 60 1014.3
20260509020006 39 246 0.0 0.0 0.00 0.00 0.04 61 1014.2
20260509014505 39 246 0.0 0.0 0.00 0.00 0.04 62 1014.0